Location: downtown San Diego
(32.7310°N, 117.1990°W)
Time: 18:38:47
(UTC-07:00)

H-2A R/B - Pass Details

Date: 14 June 2018
Orbit: 733 x 838 km, 98.3° (Epoch: 20 August)

Event Time Altitude Azimuth Distance (km) Brightness Sun altitude
Exits shadow 20:38:46 - 108° (ESE) 2,443 4.0 -8.1°
Reaches altitude 10° 20:39:12 10° 104° (ESE) 2,336 3.9 -8.2°
Maximum altitude 20:42:23 17° 66° (ENE) 1,932 3.8 -8.8°
Drops below altitude 10° 20:45:37 10° 27° (NNE) 2,387 4.7 -9.3°
Sets 20:48:47 0° 8° (N) 3,341 5.7 -9.8°
